Find Tan Ce 2

NORAD ID: 28382 Int'l Des: 2004-029 Owner: CASC Country: CN operational
MEOELLIPTICALPOLARHEO_ELLIPTICAL

实时位置

正在加载3D地球...

关于 Tan Ce 2

正在加载描述...

即将过境

Passes for default location (London). Set your location on the main map for personalized predictions.

高度历史

Loading altitude history...

两行轨道根数

1 28382U 04029A 26106.18070793 .00007617 00000-0 20379-2 0 9992
2 28382 87.9014 237.8150 7019037 133.8118 311.3761 2.61442905179059
Epoch: Apr 16, 2026 • Age: 22 hours

当前状态

高度 23190.8 km
速度 3.01 km/s
星下点 -74.69°S, 5.44°W
发射日期 Jul 25, 2004
运行时间 21.7 years
类型 other

技术详情

分类 Payload
质量 343.00 kg
干质量 343.00 kg
总质量 343.00 kg
长度 2.10 m
直径 1.40 m
跨度 10.00 m
形状 Cyl + 2 Ant
制造商 DFH
平台类型 CAST-968
阶段状态 In Orbit
所有者/国家 CASC/CN

Most Searched